,,Stat6,,Stat2,,Stat8,,Stat9,,Stat10,,Wind1,,Wind1,
time,status,PA1M_AVG,status,PR1M_SUM,status,RH1M_AVG,status,SR1M_AVG,status,TA1M_AVG,status,W1dAve1m,status,W1sAve1m,
2009-01-22, 00:00:00,VALID,916.926,VALID,0,VALID,100,VALID,-0.0849042,VALID,19.2653,VALID,115,VALID,0,
2009-01-22, 00:01:00,VALID,916.911,VALID,0,VALID,100,VALID,-0.118866,VALID,19.2985,VALID,109,VALID,0,
2009-01-22, 00:02:00,VALID,916.889,VALID,0,VALID,100,VALID,-0.0849042,VALID,19.3042,VALID,103,VALID,0,
2009-01-22, 00:03:00,VALID,916.865,VALID,0,VALID,100,VALID,-0.101885,VALID,19.2947,VALID,86,VALID,0,
2009-01-22, 00:04:00,VALID,916.854,VALID,0,VALID,100,VALID,-0.0849042,VALID,19.3239,VALID,76,VALID,0,
2009-01-22, 00:05:00,VALID,916.84,VALID,0,VALID,100,VALID,-0.101885,VALID,19.3172,VALID,92,VALID,0.100977,
2009-01-22, 00:06:00,VALID,916.828,VALID,0,VALID,100,VALID,-0.0849042,VALID,19.3429,VALID,105,VALID,0,
2009-01-22, 00:07:00,VALID,916.808,VALID,0,VALID,100,VALID,-0.0679233,VALID,19.3524,VALID,110,VALID,0.0507813,
2009-01-22, 00:08:00,VALID,916.794,VALID,0,VALID,100,VALID,-0.0679233,VALID,19.3524,VALID,98,VALID,0.00213068,
2009-01-22, 00:09:00,VALID,916.769,VALID,0,VALID,100,VALID,-0.101885,VALID,19.3591,VALID,110,VALID,0.172061,
2009-01-22, 00:10:00,VALID,916.762,VALID,0,VALID,100,VALID,-0.0679233,VALID,19.3953,VALID,114,VALID,0.112926,
2009-01-22, 00:11:00,VALID,916.753,VALID,0,VALID,100,VALID,-0.101885,VALID,19.415,VALID,138,VALID,0.0893111,
2009-01-22, 00:12:00,VALID,916.754,VALID,0,VALID,100,VALID,-0.101885,VALID,19.4347,VALID,128,VALID,0.070503,
2009-01-22, 00:13:00,VALID,916.742,VALID,0,VALID,100,VALID,-0.0849042,VALID,19.414,VALID,122,VALID,0.221726,
2009-01-22, 00:14:00,VALID,916.735,VALID,0,VALID,100,VALID,-0.0679233,VALID,19.4338,VALID,138,VALID,0.235119,
2009-01-22, 00:15:00,VALID,916.712,VALID,0,VALID,100,VALID,-0.0849042,VALID,19.4894,VALID,146,VALID,0.425071,
2009-01-22, 00:16:00,VALID,916.699,VALID,0,VALID,100,VALID,-0.0509425,VALID,19.5568,VALID,140,VALID,0.458854,
2009-01-22, 00:17:00,VALID,916.677,VALID,0,VALID,99.8133,VALID,-0.0679233,VALID,19.6222,VALID,146,VALID,0.708576,
2009-01-22, 00:18:00,VALID,916.654,VALID,0,VALID,99.5997,VALID,-0.0849042,VALID,19.6574,VALID,149,VALID,0.316592,
2009-01-22, 00:19:00,VALID,916.628,VALID,0,VALID,99.3581,VALID,-0.0849042,VALID,19.6801,VALID,135,VALID,0.436141,
2009-01-22, 00:20:00,VALID,916.606,VALID,0,VALID,99.1139,VALID,-0.0679233,VALID,19.7035,VALID,150,VALID,0.655342,
2009-01-22, 00:21:00,VALID,916.602,VALID,0,VALID,98.9346,VALID,-0.0679233,VALID,19.7455,VALID,120,VALID,0.311738,
2009-01-22, 00:22:00,VALID,916.568,VALID,0,VALID,98.6994,VALID,-0.0509425,VALID,19.7512,VALID,133,VALID,0.727471,
2009-01-22, 00:23:00,VALID,916.549,VALID,0,VALID,98.529,VALID,-0.0509425,VALID,19.7677,VALID,138,VALID,1.20443,
2009-01-22, 00:24:00,VALID,916.538,VALID,0,VALID,98.4553,VALID,-0.0339617,VALID,19.7709,VALID,144,VALID,0.605646,
2009-01-22, 00:25:00,VALID,916.519,VALID,0,VALID,98.454,VALID,-0.0509425,VALID,19.7545,VALID,143,VALID,0.536156,
2009-01-22, 00:26:00,VALID,916.516,VALID,0,VALID,98.4425,VALID,-0.0509425,VALID,19.7352,VALID,133,VALID,0.266387,
2009-01-22, 00:27:00,VALID,916.503,VALID,0,VALID,98.4425,VALID,-0.101885,VALID,19.729,VALID,137,VALID,0.925495,
2009-01-22, 00:28:00,VALID,916.489,VALID,0,VALID,98.4896,VALID,-0.0849042,VALID,19.7123,VALID,129,VALID,0.866461,
2009-01-22, 00:29:00,VALID,916.49,VALID,0,VALID,98.5354,VALID,-0.101885,VALID,19.7063,VALID,135,VALID,0.614955,
2009-01-22, 00:30:00,VALID,916.482,VALID,0,VALID,98.5214,VALID,-0.0509425,VALID,19.6933,VALID,131,VALID,0.56577,
2009-01-22, 00:31:00,VALID,916.472,VALID,0,VALID,98.3968,VALID,-0.0849042,VALID,19.7195,VALID,134,VALID,0.776486,
2009-01-22, 00:32:00,VALID,916.466,VALID,0,VALID,98.2785,VALID,-0.0679233,VALID,19.739,VALID,139,VALID,0.665179,
2009-01-22, 00:33:00,VALID,916.458,VALID,0,VALID,98.1374,VALID,-0.0339617,VALID,19.7617,VALID,144,VALID,0.667683,
2009-01-22, 00:34:00,VALID,916.442,VALID,0,VALID,97.9568,VALID,-0.0849042,VALID,19.7944,VALID,138,VALID,0.467035,
2009-01-22, 00:35:00,VALID,916.455,VALID,0,VALID,97.7203,VALID,-0.101885,VALID,19.8036,VALID,127,VALID,0.667882,
2009-01-22, 00:36:00,VALID,916.435,VALID,0,VALID,97.499,VALID,-0.0509425,VALID,19.8229,VALID,128,VALID,0.59747,
2009-01-22, 00:37:00,VALID,916.435,VALID,0,VALID,97.3642,VALID,-0.0169808,VALID,19.8493,VALID,128,VALID,0.235263,
2009-01-22, 00:38:00,VALID,916.401,VALID,0,VALID,97.279,VALID,0,VALID,19.8648,VALID,135,VALID,0.0711806,
2009-01-22, 00:39:00,VALID,916.398,VALID,0,VALID,97.1633,VALID,0,VALID,19.8543,VALID,132,VALID,0.415551,
2009-01-22, 00:40:00,VALID,916.378,VALID,0,VALID,97.0641,VALID,0.0169808,VALID,19.8643,VALID,132,VALID,0.631904,
2009-01-22, 00:41:00,VALID,916.382,VALID,0,VALID,96.9103,VALID,0.0169808,VALID,19.8805,VALID,132,VALID,0.493521,
2009-01-22, 00:42:00,VALID,916.368,VALID,0,VALID,96.75,VALID,-0.0169808,VALID,19.903,VALID,132,VALID,0.695508,
2009-01-22, 00:43:00,VALID,916.37,VALID,0,VALID,96.6623,VALID,0,VALID,19.8965,VALID,131,VALID,0.434956,
2009-01-22, 00:44:00,VALID,916.358,VALID,0,VALID,96.6674,VALID,0.0169808,VALID,19.8735,VALID,131,VALID,0.758929,
2009-01-22, 00:45:00,VALID,916.35,VALID,0,VALID,96.6598,VALID,0.0169808,VALID,19.8673,VALID,134,VALID,0.616477,
2009-01-22, 00:46:00,VALID,916.331,VALID,0,VALID,96.5936,VALID,0.0169808,VALID,19.8575,VALID,135,VALID,0.689546,
2009-01-22, 00:47:00,VALID,916.316,VALID,0,VALID,96.4906,VALID,0,VALID,19.8738,VALID,133,VALID,0.339134,
2009-01-22, 00:48:00,VALID,916.316,VALID,0,VALID,96.3927,VALID,0,VALID,19.89,VALID,135,VALID,0.747113,
2009-01-22, 00:49:00,VALID,916.288,VALID,0,VALID,96.2312,VALID,0,VALID,19.8992,VALID,141,VALID,0.792869,
2009-01-22, 00:50:00,VALID,916.286,VALID,0,VALID,95.9845,VALID,0.0169808,VALID,19.9287,VALID,133,VALID,0.532203,
2009-01-22, 00:51:00,VALID,916.268,VALID,0,VALID,95.7277,VALID,0.0169808,VALID,19.9609,VALID,134,VALID,0.455602,
2009-01-22, 00:52:00,VALID,916.259,VALID,0,VALID,95.5229,VALID,-0.0169808,VALID,20.0073,VALID,141,VALID,0.65904,
2009-01-22, 00:53:00,VALID,916.259,VALID,0,VALID,95.4199,VALID,0.0169808,VALID,20.016,VALID,145,VALID,0.151228,
2009-01-22, 00:54:00,VALID,916.246,VALID,0,VALID,95.4797,VALID,0,VALID,20.0198,VALID,136,VALID,0,
2009-01-22, 00:55:00,VALID,916.235,VALID,0,VALID,95.5992,VALID,0.0169808,VALID,19.9741,VALID,135,VALID,0.114211,
2009-01-22, 00:56:00,VALID,916.213,VALID,0,VALID,95.79,VALID,0,VALID,19.9322,VALID,133,VALID,0.44122,
2009-01-22, 00:57:00,VALID,916.193,VALID,0,VALID,95.8917,VALID,0.0169808,VALID,19.9192,VALID,131,VALID,0.41061,
2009-01-22, 00:58:00,VALID,916.166,VALID,0,VALID,95.9489,VALID,0.0169808,VALID,19.906,VALID,123,VALID,0.0601562,
2009-01-22, 00:59:00,VALID,916.137,VALID,0,VALID,96.0354,VALID,-0.0169808,VALID,19.893,VALID,118,VALID,0.209121,
2009-01-22, 01:00:00,VALID,916.111,VALID,0,VALID,96.1397,VALID,0,VALID,19.8803,VALID,111,VALID,0.459821,
2009-01-22, 01:01:00,VALID,916.102,VALID,0,VALID,96.2376,VALID,0,VALID,19.8865,VALID,127,VALID,0.304332,
2009-01-22, 01:02:00,VALID,916.082,VALID,0,VALID,96.352,VALID,0,VALID,19.877,VALID,133,VALID,0.927344,
2009-01-22, 01:03:00,VALID,916.048,VALID,0,VALID,96.3914,VALID,-0.0169808,VALID,19.9,VALID,128,VALID,0.269622,
2009-01-22, 01:04:00,VALID,916.031,VALID,0,VALID,96.3978,VALID,0,VALID,19.9,VALID,117,VALID,0.294922,
2009-01-22, 01:05:00,VALID,916.021,VALID,0,VALID,96.4665,VALID,0.0169808,VALID,19.8835,VALID,124,VALID,0.249628,
2009-01-22, 01:06:00,VALID,916.007,VALID,0,VALID,96.5313,VALID,-0.0849042,VALID,19.861,VALID,119,VALID,0.237216,
2009-01-22, 01:07:00,VALID,915.99,VALID,0,VALID,96.5606,VALID,-0.0339617,VALID,19.858,VALID,113,VALID,0.0567255,
2009-01-22, 01:08:00,VALID,915.971,VALID,0,VALID,96.5199,VALID,0,VALID,19.858,VALID,113,VALID,0.304497,
2009-01-22, 01:09:00,VALID,915.953,VALID,0,VALID,96.3012,VALID,0,VALID,19.8738,VALID,129,VALID,0.591206,
2009-01-22, 01:10:00,VALID,915.944,VALID,0,VALID,96.1905,VALID,-0.0169808,VALID,19.907,VALID,129,VALID,0.031622,
2009-01-22, 01:11:00,VALID,915.918,VALID,0,VALID,96.1346,VALID,0,VALID,19.88,VALID,122,VALID,0.383523,
2009-01-22, 01:12:00,VALID,915.906,VALID,0,VALID,96.1486,VALID,0,VALID,19.877,VALID,119,VALID,0.222384,
2009-01-22, 01:13:00,VALID,915.905,VALID,0,VALID,96.1931,VALID,0,VALID,19.88,VALID,134,VALID,0.583394,
2009-01-22, 01:14:00,VALID,915.918,VALID,0,VALID,96.1791,VALID,-0.0169808,VALID,19.8932,VALID,137,VALID,0.761814,
2009-01-22, 01:15:00,VALID,915.904,VALID,0,VALID,96.1918,VALID,0,VALID,19.88,VALID,133,VALID,0.244673,
2009-01-22, 01:16:00,VALID,915.904,VALID,0,VALID,96.2058,VALID,0,VALID,19.8835,VALID,142,VALID,0.523801,
2009-01-22, 01:17:00,VALID,915.921,VALID,0,VALID,96.1219,VALID,0,VALID,19.8962,VALID,141,VALID,0.483041,
2009-01-22, 01:18:00,VALID,915.918,VALID,0,VALID,96.0507,VALID,0.0169808,VALID,19.9057,VALID,136,VALID,0.351563,
2009-01-22, 01:19:00,VALID,915.932,VALID,0,VALID,96.0646,VALID,0.0169808,VALID,19.9095,VALID,125,VALID,0.00990854,
2009-01-22, 01:20:00,VALID,915.93,VALID,0,VALID,96.1702,VALID,0,VALID,19.8897,VALID,132,VALID,0,
2009-01-22, 01:21:00,VALID,915.91,VALID,0,VALID,96.408,VALID,0,VALID,19.8441,VALID,135,VALID,0,
2009-01-22, 01:22:00,VALID,915.889,VALID,0,VALID,96.6318,VALID,-0.0169808,VALID,19.8186,VALID,136,VALID,0.0170785,
2009-01-22, 01:23:00,VALID,915.874,VALID,0,VALID,96.7195,VALID,0,VALID,19.8189,VALID,123,VALID,0.25279,
2009-01-22, 01:24:00,VALID,915.856,VALID,0,VALID,96.6623,VALID,0,VALID,19.8283,VALID,133,VALID,0.338246,
2009-01-22, 01:25:00,VALID,915.815,VALID,0,VALID,96.5364,VALID,0,VALID,19.8608,VALID,138,VALID,0.139898,
2009-01-22, 01:26:00,VALID,915.802,VALID,0,VALID,96.427,VALID,0,VALID,19.8705,VALID,142,VALID,0.256811,
2009-01-22, 01:27:00,VALID,915.785,VALID,0,VALID,96.2401,VALID,0,VALID,19.9132,VALID,141,VALID,0.369141,
2009-01-22, 01:28:00,VALID,915.755,VALID,0,VALID,96.1066,VALID,0,VALID,19.9317,VALID,140,VALID,0.430959,
2009-01-22, 01:29:00,VALID,915.745,VALID,0,VALID,95.9171,VALID,0,VALID,19.9546,VALID,137,VALID,0.304297,
2009-01-22, 01:30:00,VALID,915.734,VALID,0,VALID,95.7238,VALID,0,VALID,19.9706,VALID,134,VALID,0.162574,
2009-01-22, 01:31:00,VALID,915.723,VALID,0,VALID,95.4911,VALID,0,VALID,20.02,VALID,131,VALID,1.05669,
2009-01-22, 01:32:00,VALID,915.712,VALID,0,VALID,95.2279,VALID,0,VALID,20.0487,VALID,133,VALID,0.906436,
2009-01-22, 01:33:00,VALID,915.691,VALID,0,VALID,95.0207,VALID,0,VALID,20.0849,VALID,143,VALID,0.931212,
2009-01-22, 01:34:00,VALID,915.651,VALID,0,VALID,94.8083,VALID,-0.0339617,VALID,20.1339,VALID,133,VALID,1.73958,
2009-01-22, 01:35:00,VALID,915.646,VALID,0,VALID,94.5565,VALID,0,VALID,20.159,VALID,135,VALID,0.972942,
2009-01-22, 01:36:00,VALID,915.63,VALID,0,VALID,94.3391,VALID,0,VALID,20.2045,VALID,121,VALID,0.689215,
2009-01-22, 01:37:00,VALID,915.621,VALID,0,VALID,94.1776,VALID,0,VALID,20.2245,VALID,130,VALID,0.924479,
2009-01-22, 01:38:00,VALID,915.584,VALID,0,VALID,94.0263,VALID,-0.0679233,VALID,20.2649,VALID,132,VALID,0.835007,
2009-01-22, 01:39:00,VALID,915.576,VALID,0,VALID,93.95,VALID,-0.0679233,VALID,20.2769,VALID,135,VALID,0.765262,
2009-01-22, 01:40:00,VALID,915.539,VALID,0,VALID,93.9805,VALID,-0.0339617,VALID,20.2744,VALID,136,VALID,1.10249,
2009-01-22, 01:41:00,VALID,915.514,VALID,0,VALID,94.0059,VALID,-0.0509425,VALID,20.2777,VALID,140,VALID,1.16629,
2009-01-22, 01:42:00,VALID,915.491,VALID,0,VALID,94.114,VALID,-0.0509425,VALID,20.2544,VALID,130,VALID,0.778054,
2009-01-22, 01:43:00,VALID,915.469,VALID,0,VALID,94.2488,VALID,-0.0849042,VALID,20.2322,VALID,130,VALID,0.654652,
2009-01-22, 01:44:00,VALID,915.458,VALID,0,VALID,94.3022,VALID,-0.0679233,VALID,20.2187,VALID,133,VALID,0.930069,
2009-01-22, 01:45:00,VALID,915.449,VALID,0,VALID,94.2742,VALID,-0.0169808,VALID,20.222,VALID,132,VALID,0.985377,
2009-01-22, 01:46:00,VALID,915.42,VALID,0,VALID,94.1051,VALID,-0.0339617,VALID,20.2577,VALID,142,VALID,1.14416,
2009-01-22, 01:47:00,VALID,915.406,VALID,0,VALID,93.8686,VALID,-0.0679233,VALID,20.2874,VALID,145,VALID,1.6568,
2009-01-22, 01:48:00,VALID,915.404,VALID,0,VALID,93.66,VALID,-0.0339617,VALID,20.3426,VALID,139,VALID,0.375,
2009-01-22, 01:49:00,VALID,915.399,VALID,0,VALID,93.557,VALID,-0.0169808,VALID,20.3323,VALID,132,VALID,0.333452,
2009-01-22, 01:50:00,VALID,915.398,VALID,0,VALID,93.5685,VALID,-0.0169808,VALID,20.3228,VALID,140,VALID,0.311592,
2009-01-22, 01:51:00,VALID,915.386,VALID,0,VALID,93.6766,VALID,-0.0169808,VALID,20.2931,VALID,133,VALID,0.403525,
2009-01-22, 01:52:00,VALID,915.383,VALID,0,VALID,93.8406,VALID,-0.0509425,VALID,20.2809,VALID,136,VALID,0.307478,
2009-01-22, 01:53:00,VALID,915.373,VALID,0,VALID,93.9728,VALID,-0.0679233,VALID,20.2579,VALID,131,VALID,0.931974,
2009-01-22, 01:54:00,VALID,915.367,VALID,0,VALID,94.0898,VALID,-0.0509425,VALID,20.2444,VALID,143,VALID,0.427083,
2009-01-22, 01:55:00,VALID,915.353,VALID,0,VALID,94.231,VALID,-0.0339617,VALID,20.2255,VALID,142,VALID,0.135306,
2009-01-22, 01:56:00,VALID,915.358,VALID,0,VALID,94.4217,VALID,-0.0679233,VALID,20.1965,VALID,140,VALID,0.553234,
2009-01-22, 01:57:00,VALID,915.347,VALID,0,VALID,94.6137,VALID,-0.0679233,VALID,20.1733,VALID,127,VALID,0.257241,
2009-01-22, 01:58:00,VALID,915.346,VALID,0,VALID,94.8286,VALID,-0.0849042,VALID,20.1444,VALID,140,VALID,0.409339,
2009-01-22, 01:59:00,VALID,915.333,VALID,0,VALID,94.938,VALID,-0.0849042,VALID,20.1349,VALID,149,VALID,0.158794,
2009-01-22, 02:00:00,VALID,915.308,VALID,0,VALID,94.966,VALID,-0.101885,VALID,20.1349,VALID,161,VALID,0.107639,
2009-01-22, 02:01:00,VALID,915.286,VALID,0,VALID,94.7841,VALID,-0.0849042,VALID,20.1608,VALID,161,VALID,0.661882,
2009-01-22, 02:02:00,VALID,915.276,VALID,0,VALID,94.4205,VALID,-0.0849042,VALID,20.2063,VALID,148,VALID,0.651414,
2009-01-22, 02:03:00,VALID,915.257,VALID,0,VALID,94.2615,VALID,-0.0509425,VALID,20.2285,VALID,148,VALID,0.394886,
2009-01-22, 02:04:00,VALID,915.238,VALID,0,VALID,94.2145,VALID,-0.0679233,VALID,20.2152,VALID,135,VALID,0.550967,
2009-01-22, 02:05:00,VALID,915.22,VALID,0,VALID,94.1814,VALID,-0.101885,VALID,20.216,VALID,143,VALID,0.481771,
2009-01-22, 02:06:00,VALID,915.192,VALID,0,VALID,94.1331,VALID,-0.0849042,VALID,20.2187,VALID,146,VALID,0.887695,
2009-01-22, 02:07:00,VALID,915.183,VALID,0,VALID,93.9258,VALID,-0.0339617,VALID,20.2609,VALID,143,VALID,1.19017,
2009-01-22, 02:08:00,VALID,915.178,VALID,0,VALID,93.7058,VALID,0.0169808,VALID,20.2988,VALID,132,VALID,0.931323,
2009-01-22, 02:09:00,VALID,915.149,VALID,0,VALID,93.5316,VALID,0.0509425,VALID,20.2993,VALID,143,VALID,0.959985,
2009-01-22, 02:10:00,VALID,915.134,VALID,0,VALID,93.351,VALID,0.0339617,VALID,20.338,VALID,134,VALID,1.45098,
2009-01-22, 02:11:00,VALID,915.101,VALID,0,VALID,93.1628,VALID,0.0169808,VALID,20.36,VALID,123,VALID,1.67801,
2009-01-22, 02:12:00,VALID,915.075,VALID,0,VALID,92.9581,VALID,0.0509425,VALID,20.3862,VALID,147,VALID,1.48027,
2009-01-22, 02:13:00,VALID,915.053,VALID,0,VALID,92.7992,VALID,0.0339617,VALID,20.4151,VALID,142,VALID,1.66053,
2009-01-22, 02:14:00,VALID,915.042,VALID,0,VALID,92.714,VALID,0.0509425,VALID,20.4454,VALID,133,VALID,0.978016,
2009-01-22, 02:15:00,VALID,915.017,VALID,0,VALID,92.7521,VALID,0.0339617,VALID,20.4289,VALID,140,VALID,1.27883,
2009-01-22, 02:16:00,VALID,915.005,VALID,0,VALID,92.8335,VALID,0.0169808,VALID,20.3894,VALID,128,VALID,0.71532,
2009-01-22, 02:17:00,VALID,915.001,VALID,0,VALID,92.9785,VALID,0,VALID,20.3735,VALID,130,VALID,1.08761,
2009-01-22, 02:18:00,VALID,914.97,VALID,0,VALID,93.0446,VALID,0.0169808,VALID,20.3505,VALID,129,VALID,0.90067,
2009-01-22, 02:19:00,VALID,914.97,VALID,0,VALID,93.1018,VALID,0.0679233,VALID,20.334,VALID,133,VALID,1.47847,
2009-01-22, 02:20:00,VALID,914.963,VALID,0,VALID,93.1018,VALID,0.0339617,VALID,20.3413,VALID,123,VALID,1.11701,
2009-01-22, 02:21:00,VALID,914.969,VALID,0,VALID,93.1883,VALID,0,VALID,20.3156,VALID,132,VALID,0.976199,
2009-01-22, 02:22:00,VALID,914.959,VALID,0,VALID,93.3981,VALID,0.0169808,VALID,20.2824,VALID,156,VALID,0.969638,
2009-01-22, 02:23:00,VALID,914.965,VALID,0,VALID,93.6155,VALID,-0.0679233,VALID,20.2707,VALID,154,VALID,0.766555,
2009-01-22, 02:24:00,VALID,914.956,VALID,0,VALID,93.7287,VALID,-0.0509425,VALID,20.2806,VALID,153,VALID,0.634337,
2009-01-22, 02:25:00,VALID,914.939,VALID,0,VALID,93.8508,VALID,-0.0849042,VALID,20.2812,VALID,156,VALID,0.468576,
2009-01-22, 02:26:00,VALID,914.95,VALID,0,VALID,93.983,VALID,-0.0849042,VALID,20.2709,VALID,153,VALID,1.09993,
2009-01-22, 02:27:00,VALID,914.952,VALID,0,VALID,93.9919,VALID,-0.0679233,VALID,20.2617,VALID,162,VALID,1.53214,
2009-01-22, 02:28:00,VALID,914.97,VALID,0,VALID,93.8699,VALID,-0.0339617,VALID,20.2744,VALID,151,VALID,0.924548,
2009-01-22, 02:29:00,VALID,914.986,VALID,0,VALID,93.9945,VALID,-0.0849042,VALID,20.2836,VALID,137,VALID,1.34484,
2009-01-22, 02:30:00,VALID,915.001,VALID,0,VALID,94.2412,VALID,-0.0849042,VALID,20.2619,VALID,140,VALID,0.886905,
2009-01-22, 02:31:00,VALID,915.002,VALID,0,VALID,94.5616,VALID,-0.0849042,VALID,20.2292,VALID,156,VALID,1.12873,
2009-01-22, 02:32:00,VALID,915.013,VALID,0,VALID,94.7663,VALID,-0.0679233,VALID,20.2058,VALID,165,VALID,0.636265,
2009-01-22, 02:33:00,VALID,915.001,VALID,0,VALID,94.8731,VALID,-0.0509425,VALID,20.2033,VALID,160,VALID,0.565476,
2009-01-22, 02:34:00,VALID,914.988,VALID,0,VALID,94.9711,VALID,-0.0509425,VALID,20.1893,VALID,159,VALID,0.935138,
2009-01-22, 02:35:00,VALID,915,VALID,0,VALID,95.0257,VALID,-0.0509425,VALID,20.183,VALID,165,VALID,1.10955,
2009-01-22, 02:36:00,VALID,914.996,VALID,0,VALID,95.1669,VALID,-0.0509425,VALID,20.1701,VALID,159,VALID,1.22532,
2009-01-22, 02:37:00,VALID,914.985,VALID,0,VALID,95.1262,VALID,-0.0849042,VALID,20.1538,VALID,152,VALID,0.959517,
2009-01-22, 02:38:00,VALID,914.984,VALID,0,VALID,94.9571,VALID,0.0509425,VALID,20.1885,VALID,147,VALID,1.47707,
2009-01-22, 02:39:00,VALID,914.969,VALID,0,VALID,94.526,VALID,0.0169808,VALID,20.2202,VALID,149,VALID,1.17442,
2009-01-22, 02:40:00,VALID,914.983,VALID,0,VALID,94.0186,VALID,0,VALID,20.3121,VALID,133,VALID,1.28757,
2009-01-22, 02:41:00,VALID,914.989,VALID,0,VALID,93.6728,VALID,0.0679233,VALID,20.36,VALID,127,VALID,1.97675,
2009-01-22, 02:42:00,VALID,914.996,VALID,0,VALID,93.7122,VALID,0.0339617,VALID,20.3665,VALID,141,VALID,0.780273,
2009-01-22, 02:43:00,VALID,914.993,VALID,0,VALID,93.8025,VALID,0,VALID,20.351,VALID,151,VALID,1.18806,
2009-01-22, 02:44:00,VALID,915.002,VALID,0,VALID,93.6956,VALID,0.0169808,VALID,20.3438,VALID,150,VALID,1.61759,
2009-01-22, 02:45:00,VALID,914.99,VALID,0,VALID,93.6333,VALID,0.0509425,VALID,20.3999,VALID,142,VALID,1.71968,
2009-01-22, 02:46:00,VALID,914.979,VALID,0,VALID,93.5278,VALID,0.0339617,VALID,20.4059,VALID,144,VALID,1.21476,
2009-01-22, 02:47:00,VALID,914.993,VALID,0,VALID,93.5341,VALID,0.0169808,VALID,20.4027,VALID,144,VALID,1.13063,
2009-01-22, 02:48:00,VALID,914.97,VALID,0,VALID,93.5507,VALID,0.0339617,VALID,20.4024,VALID,151,VALID,1.52586,
2009-01-22, 02:49:00,VALID,914.963,VALID,0,VALID,93.4909,VALID,0.0169808,VALID,20.3924,VALID,152,VALID,1.49943,
2009-01-22, 02:50:00,VALID,914.96,VALID,0,VALID,93.1845,VALID,0.0849042,VALID,20.4414,VALID,152,VALID,1.6677,
2009-01-22, 02:51:00,VALID,914.966,VALID,0,VALID,93.0064,VALID,0.0679233,VALID,20.4671,VALID,143,VALID,1.79815,
2009-01-22, 02:52:00,VALID,914.967,VALID,0,VALID,92.9937,VALID,0.0679233,VALID,20.4771,VALID,142,VALID,1.34063,
2009-01-22, 02:53:00,VALID,914.954,VALID,0,VALID,93.0357,VALID,-0.0509425,VALID,20.4751,VALID,155,VALID,1.27604,
2009-01-22, 02:54:00,VALID,914.949,VALID,0,VALID,93.3218,VALID,-0.0509425,VALID,20.4786,VALID,149,VALID,1.36882,
2009-01-22, 02:55:00,VALID,914.942,VALID,0,VALID,93.6575,VALID,-0.0339617,VALID,20.4391,VALID,138,VALID,1.57467,
2009-01-22, 02:56:00,VALID,914.95,VALID,0,VALID,94.0847,VALID,-0.0679233,VALID,20.378,VALID,141,VALID,1.43542,
2009-01-22, 02:57:00,VALID,914.951,VALID,0,VALID,94.526,VALID,-0.0509425,VALID,20.3096,VALID,145,VALID,1.13917,
2009-01-22, 02:58:00,VALID,914.946,VALID,0,VALID,94.8833,VALID,-0.0679233,VALID,20.2579,VALID,144,VALID,1.26908,
2009-01-22, 02:59:00,VALID,914.972,VALID,0,VALID,95.1415,VALID,-0.0509425,VALID,20.2192,VALID,133,VALID,1.21429,
2009-01-22, 03:00:00,VALID,914.966,VALID,0,VALID,95.392,VALID,-0.0679233,VALID,20.1933,VALID,159,VALID,0.821332,
2009-01-22, 03:01:00,VALID,914.976,VALID,0,VALID,95.6259,VALID,-0.0849042,VALID,20.1741,VALID,161,VALID,0.990007,
2009-01-22, 03:02:00,VALID,914.997,VALID,0,VALID,95.8726,VALID,-0.101885,VALID,20.1479,VALID,143,VALID,0.844295,
2009-01-22, 03:03:00,VALID,915.008,VALID,0,VALID,96.0812,VALID,-0.0679233,VALID,20.1181,VALID,94,VALID,0.633003,
2009-01-22, 03:04:00,VALID,915.008,VALID,0,VALID,96.4131,VALID,-0.0679233,VALID,20.0635,VALID,106,VALID,0.954368,
2009-01-22, 03:05:00,VALID,915.012,VALID,0,VALID,96.8963,VALID,-0.0849042,VALID,19.9951,VALID,143,VALID,0.902435,
2009-01-22, 03:06:00,VALID,915.014,VALID,0,VALID,97.279,VALID,-0.0679233,VALID,19.9496,VALID,146,VALID,0.419457,
2009-01-22, 03:07:00,VALID,915.012,VALID,0,VALID,97.3846,VALID,-0.0339617,VALID,19.9464,VALID,156,VALID,1.25434,
2009-01-22, 03:08:00,VALID,915.027,VALID,0,VALID,97.3108,VALID,-0.0509425,VALID,19.9918,VALID,129,VALID,0.897222,
2009-01-22, 03:09:00,VALID,915.013,VALID,0,VALID,97.2307,VALID,-0.0849042,VALID,20.0048,VALID,109,VALID,0.110305,
2009-01-22, 03:10:00,VALID,914.997,VALID,0,VALID,97.2841,VALID,-0.101885,VALID,20.0023,VALID,123,VALID,0.737645,
2009-01-22, 03:11:00,VALID,915.004,VALID,0,VALID,97.4087,VALID,-0.101885,VALID,19.9888,VALID,121,VALID,0.731707,
2009-01-22, 03:12:00,VALID,915.006,VALID,0,VALID,97.5321,VALID,-0.0509425,VALID,19.9556,VALID,123,VALID,1.00849,
2009-01-22, 03:13:00,VALID,915.006,VALID,0,VALID,97.7025,VALID,-0.101885,VALID,19.9369,VALID,139,VALID,0.82168,
2009-01-22, 03:14:00,VALID,914.996,VALID,0,VALID,97.9085,VALID,-0.101885,VALID,19.9012,VALID,146,VALID,0.0655887,
2009-01-22, 03:15:00,VALID,915.005,VALID,0,VALID,98.1005,VALID,-0.101885,VALID,19.8683,VALID,139,VALID,1.07489,
2009-01-22, 03:16:00,VALID,914.987,VALID,0,VALID,98.1564,VALID,-0.101885,VALID,19.8785,VALID,132,VALID,1.30183,
2009-01-22, 03:17:00,VALID,914.978,VALID,0,VALID,97.8207,VALID,-0.0509425,VALID,19.9594,VALID,112,VALID,1.08125,
2009-01-22, 03:18:00,VALID,914.984,VALID,0,VALID,97.4265,VALID,-0.101885,VALID,20.0443,VALID,105,VALID,1.18697,
2009-01-22, 03:19:00,VALID,914.966,VALID,0,VALID,97.2205,VALID,-0.0849042,VALID,20.0735,VALID,111,VALID,1.41946,
2009-01-22, 03:20:00,VALID,914.955,VALID,0,VALID,97.2663,VALID,-0.135847,VALID,20.0475,VALID,114,VALID,1.117,
2009-01-22, 03:21:00,VALID,914.956,VALID,0,VALID,97.3896,VALID,-0.101885,VALID,20.0183,VALID,127,VALID,1.52925,
2009-01-22, 03:22:00,VALID,914.928,VALID,0,VALID,97.5232,VALID,-0.0849042,VALID,19.9986,VALID,129,VALID,0.792333,
2009-01-22, 03:23:00,VALID,914.909,VALID,0,VALID,97.6007,VALID,-0.0849042,VALID,19.9921,VALID,133,VALID,0.400981,
2009-01-22, 03:24:00,VALID,914.904,VALID,0,VALID,97.6618,VALID,-0.118866,VALID,19.9858,VALID,132,VALID,1.04013,
2009-01-22, 03:25:00,VALID,914.895,VALID,0,VALID,97.7215,VALID,-0.0849042,VALID,19.9659,VALID,143,VALID,0.803052,
2009-01-22, 03:26:00,VALID,914.88,VALID,0,VALID,97.7813,VALID,-0.0849042,VALID,19.9529,VALID,153,VALID,0.797991,
2009-01-22, 03:27:00,VALID,914.887,VALID,0,VALID,97.7419,VALID,-0.0679233,VALID,19.9691,VALID,145,VALID,0.70141,
2009-01-22, 03:28:00,VALID,914.892,VALID,0,VALID,97.6376,VALID,-0.101885,VALID,20.0148,VALID,151,VALID,0.508929,
2009-01-22, 03:29:00,VALID,914.905,VALID,0,VALID,97.5651,VALID,-0.118866,VALID,20.0315,VALID,137,VALID,0.643999,
2009-01-22, 03:30:00,VALID,914.919,VALID,0,VALID,97.5372,VALID,-0.101885,VALID,20.0248,VALID,146,VALID,0.274368,
2009-01-22, 03:31:00,VALID,914.923,VALID,0,VALID,97.5804,VALID,-0.0849042,VALID,20.0113,VALID,144,VALID,1.09623,
2009-01-22, 03:32:00,VALID,914.912,VALID,0,VALID,97.691,VALID,-0.0679233,VALID,20.0018,VALID,156,VALID,0.727706,